STARLINK-11447, 62418

Orbit data source: Space-Track

STARLINK-11447, 62418 is a payload satellite owned by SpaceX/Seattle (US) in LEO that was launched on Mon, 23 Dec 2024 UTC via an FALCON 9 launch vehicle from the Air Force Eastern Test Range (AFETR). Payload-class satellites include a variety of spacecraft equipped with specific instruments for various scientific and technological missions. These include communications satellites like Starlink; space stations such as the ISS; scientific satellites like the Hubble; Earth observation satellites from companies like Planet Labs, Umbra, and HawkEye 360; GPS; miniature CubeSats for education and research; and military/defense satellites.

Loading next visibility...
Identifier
62418, 2024-249K
Orbit
LEO
Country
Flag of USUS
Related business
Manufacturer
SpaceX/Seattle
Mission
Operational Commercial Communications
Bus & Motor
STARLINK V2MD, Unknown motor
Mass
960 kg wet, ~910 kg dry
Launch date (UTC)
2024-12-23 (1 year ago)
Launch vehicle
FALCON 9
Launch site
Air Force Eastern Test Range (AFETR)
Object type
Payload
Rocket body
Debris
Shape & HBR
Box + 2 Pan, 18.1 m
Radar Cross Section
36.964 m², Large (>1 m²)

Expand to show TLE details & history
Last TLE update: 1 day ago

TLE from 1 day ago
0 STARLINK-11447
1 62418U 24249K   26170.73433989  .00222804  00000-0  16890-2 0  9998
2 62418  42.9981 272.2003 0001997 262.7215  97.3425 15.70906679 85534
Epoch: 2026-06-19T17:37Z
TLE epoch observation values (Epoch: 2026-06-19T17:37:26.966Z)
Latitude
-0.00006°
Longitude
99.87881°
Altitude
356.248 km
Speed
7.697 km/s
True Right ascension
18h 08m 48s
True Declination
0° 00' 00"
Sunlit
Object was in full shadow at epoch
Visualization orbit readout
Latitude
Unknown
Longitude
Unknown
Altitude
Unknown
Speed
Unknown
Apparent Right ascension
Unknown
Apparent Declination
Unknown
Sunlit
N/A
Visualization observer readout
Local Sidereal Time
07:18:13
Azimuth
Unknown
Elevation
Unknown
Doppler factor
Unknown
Orbital elements
Apogee altitude
359.632 km
Perigee altitude
356.941 km
Semi-major axis
6,736.423 km
Eccentricity
0.0002
Inclination
42.9981°
RAAN
272.2003°
Arg. of periapsis
262.7215°
True anomaly
97.3652°
Mean anomaly
97.3425°
Eccentric anomaly
97.35385°
Mean motion
3.92554 °/min
Orbital period
91.71 mins
BSTAR
0.001689
Loading maneuver chart data...
Computing Atmospheric mass density...
Loading historical data...
Loading historical data...
Loading historical data...
Loading historical data...
Loading historical data...
Loading historical data...
Loading historical data...

Documentation

Showing up to 5 results
|